TimeGMT,TemperatureF,Dew PointF,Humidity,Sea Level PressureIn,VisibilityMPH,Wind Direction,Wind SpeedMPH,Gust SpeedMPH,PrecipitationIn,Events,Conditions,WindDirDegrees,DateUTC
12:20 AM,50.0,48.2,94,30.42,3.7,SSW,12.7,-,N/A,Rain,Light Rain,210,2013-01-04 00:20:00
12:50 AM,50.0,48.2,94,30.42,4.3,SW,11.5,-,N/A,Rain,Light Rain,220,2013-01-04 00:50:00
1:20 AM,50.0,48.2,94,30.42,5.6,SW,10.4,-,N/A,Rain,Light Rain,220,2013-01-04 01:20:00
1:50 AM,50.0,48.2,94,30.42,6.2,SSW,12.7,-,N/A,,Overcast,210,2013-01-04 01:50:00
2:20 AM,50.0,48.2,94,30.42,6.2,SSW,13.8,-,N/A,,Overcast,210,2013-01-04 02:20:00
2:50 AM,50.0,48.2,94,30.45,6.2,SSW,12.7,-,N/A,,Overcast,210,2013-01-04 02:50:00
3:20 AM,50.0,48.2,94,30.45,6.2,SW,8.1,-,N/A,,Mostly Cloudy,230,2013-01-04 03:20:00
3:50 AM,50.0,48.2,94,30.45,6.2,SW,9.2,-,N/A,,Mostly Cloudy,230,2013-01-04 03:50:00
4:20 AM,50.0,48.2,94,30.45,6.2,SSW,8.1,-,N/A,,Mostly Cloudy,210,2013-01-04 04:20:00
4:50 AM,50.0,48.2,94,30.45,6.2,SW,10.4,-,N/A,,Mostly Cloudy,230,2013-01-04 04:50:00
5:20 AM,50.0,48.2,94,30.45,6.2,WSW,8.1,-,N/A,,Mostly Cloudy,240,2013-01-04 05:20:00
5:50 AM,50.0,48.2,94,30.45,6.2,SW,9.2,-,N/A,,Mostly Cloudy,220,2013-01-04 05:50:00
6:20 AM,50.0,48.2,94,30.45,6.2,SW,10.4,-,N/A,,Mostly Cloudy,230,2013-01-04 06:20:00
6:50 AM,50.0,48.2,94,30.48,6.2,WSW,9.2,-,N/A,,Mostly Cloudy,240,2013-01-04 06:50:00
7:20 AM,48.2,46.4,93,30.45,6.2,WSW,12.7,-,N/A,,Overcast,240,2013-01-04 07:20:00
7:50 AM,48.2,46.4,93,30.48,6.2,SW,9.2,-,N/A,,Overcast,220,2013-01-04 07:50:00
8:20 AM,50.0,46.4,87,30.45,6.2,WSW,12.7,-,N/A,,Mostly Cloudy,250,2013-01-04 08:20:00
8:50 AM,48.2,46.4,93,30.45,6.2,WSW,6.9,-,N/A,,Mostly Cloudy,250,2013-01-04 08:50:00
9:20 AM,48.2,46.4,93,30.45,6.2,WSW,13.8,-,N/A,,Mostly Cloudy,250,2013-01-04 09:20:00
9:50 AM,48.2,46.4,93,30.45,6.2,WSW,8.1,-,N/A,,Overcast,240,2013-01-04 09:50:00
10:20 AM,48.2,46.4,93,30.45,6.2,WSW,10.4,-,N/A,,Mostly Cloudy,250,2013-01-04 10:20:00
10:50 AM,50.0,46.4,87,30.45,6.2,WSW,9.2,-,N/A,,Mostly Cloudy,250,2013-01-04 10:50:00
11:20 AM,50.0,46.4,87,30.48,6.2,West,10.4,-,N/A,,Mostly Cloudy,260,2013-01-04 11:20:00
11:50 AM,50.0,46.4,87,30.48,6.2,WSW,10.4,-,N/A,,Mostly Cloudy,250,2013-01-04 11:50:00
12:20 PM,50.0,46.4,87,30.48,6.2,WSW,8.1,-,N/A,,Mostly Cloudy,240,2013-01-04 12:20:00
12:50 PM,50.0,46.4,87,30.45,6.2,WSW,6.9,-,N/A,,Scattered Clouds,250,2013-01-04 12:50:00
1:20 PM,48.2,46.4,93,30.48,6.2,WSW,8.1,-,N/A,,Scattered Clouds,240,2013-01-04 13:20:00
1:50 PM,51.8,46.4,82,30.48,6.2,WSW,10.4,-,N/A,,Mostly Cloudy,250,2013-01-04 13:50:00
2:20 PM,50.0,44.6,82,30.48,6.2,WSW,11.5,-,N/A,,Mostly Cloudy,240,2013-01-04 14:20:00
2:50 PM,50.0,44.6,82,30.48,6.2,SW,10.4,-,N/A,,Mostly Cloudy,230,2013-01-04 14:50:00
3:20 PM,50.0,44.6,82,30.48,6.2,SW,10.4,-,N/A,,Mostly Cloudy,230,2013-01-04 15:20:00
3:50 PM,48.2,46.4,93,30.48,6.2,WSW,9.2,-,N/A,,Mostly Cloudy,240,2013-01-04 15:50:00
4:20 PM,48.2,46.4,93,30.48,5.6,WSW,6.9,-,N/A,,Mostly Cloudy,240,2013-01-04 16:20:00
4:50 PM,48.2,46.4,93,30.48,5.6,SW,5.8,-,N/A,,Light Drizzle,230,2013-01-04 16:50:00
5:20 PM,48.2,46.4,93,30.48,5.0,SW,6.9,-,N/A,,Light Drizzle,220,2013-01-04 17:20:00
5:50 PM,48.2,46.4,93,30.48,4.3,SW,8.1,-,N/A,,Light Drizzle,220,2013-01-04 17:50:00
6:20 PM,48.2,46.4,93,30.48,3.7,SW,9.2,-,N/A,,Light Drizzle,230,2013-01-04 18:20:00
6:50 PM,48.2,46.4,93,30.48,3.7,SW,9.2,-,N/A,,Light Drizzle,230,2013-01-04 18:50:00
7:20 PM,48.2,46.4,93,30.48,5.0,SW,8.1,-,N/A,,Light Drizzle,220,2013-01-04 19:20:00
7:50 PM,48.2,46.4,93,30.48,5.0,SSW,8.1,-,N/A,,Light Drizzle,200,2013-01-04 19:50:00
8:20 PM,48.2,46.4,93,30.48,4.3,SW,9.2,-,N/A,,Light Drizzle,220,2013-01-04 20:20:00
8:50 PM,48.2,46.4,93,30.48,5.0,SW,12.7,-,N/A,,Light Drizzle,220,2013-01-04 20:50:00
9:20 PM,48.2,46.4,93,30.48,5.6,SSW,12.7,-,N/A,,Light Drizzle,210,2013-01-04 21:20:00
9:50 PM,48.2,46.4,93,30.48,5.6,SSW,11.5,-,N/A,,Mostly Cloudy,210,2013-01-04 21:50:00
10:20 PM,48.2,46.4,93,30.48,5.6,SSW,11.5,-,N/A,,Mostly Cloudy,200,2013-01-04 22:20:00
10:50 PM,48.2,46.4,93,30.45,6.2,SSW,6.9,-,N/A,,Mostly Cloudy,200,2013-01-04 22:50:00
11:20 PM,48.2,46.4,93,30.45,6.2,South,6.9,-,N/A,,Mostly Cloudy,180,2013-01-04 23:20:00
11:50 PM,48.2,46.4,93,30.45,6.2,SW,8.1,-,N/A,,Mostly Cloudy,220,2013-01-04 23:50:00